Beaver, WV

8:42 PM EST on January 23, 2017 (GMT -0500)
Raleigh County Memorial

Weather History for KBKW - September, 2012

Change the Weather History Date:

Wednesday, September 26, 2012

  Actual Average Record
Temperature  
Mean Temperature 65 °F 59 °F  
Max Temperature 77 °F 69 °F 87 °F (1933)
Min Temperature 53 °F 50 °F 30 °F (1950)
Degree Days  
Heating Degree Days 0 6  
Month to date heating degree days 90 84  
Since 1 July heating degree days 93 105  
Cooling Degree Days 0 1  
Month to date cooling degree days 75 55  
Year to date cooling degree days 758 548  
Growing Degree Days 15 (Base 50)    
Moisture  
Dew Point 55 °F    
Average Humidity 73    
Maximum Humidity 93    
Minimum Humidity 53    
Precipitation  
Precipitation 0.00 in 0.10 in 1.57 in (2002)
Month to date precipitation 4.46 2.63  
Year to date precipitation 35.17 32.29  
Snow  
Snow 0.00 in - - ()
Month to date snowfall 0.0  
Since 1 September snowfall 0.0  
Snow Depth 0.00 in    
Sea Level Pressure  
Sea Level Pressure 30.16 in    
Wind  
Wind Speed 6 mph (SW)    
Max Wind Speed 16 mph    
Max Gust Speed 21 mph    
Visibility 10 miles    
Events      
T = Trace of Precipitation, MM = Missing Value Source: NWS Daily Summary

Daily Weather History Graph

Daily Weather History Graph

Search for Another Location

Airport or City:

Trip Planner

Search our weather history database for the weather conditions in past years. The results will help you decide how hot, cold, wet, or windy it might be!

Date:

Astronomy

Sep. 26, 2012 Rise Set
Actual Time 7:16 AM EDT 7:14 PM EDT
Civil Twilight 6:49 AM EDT 7:40 PM EDT
Nautical Twilight 6:19 AM EDT 8:11 PM EDT
Astronomical Twilight 5:48 AM EDT 8:41 PM EDT
Moon 5:10 PM EDT (9/26) 3:43 AM EDT (9/26)
Length of Visible Light 12h 50m
Length of Day
11h 58m
Waxing Gibbous, 88% of the Moon is Illuminated
Sep 26
Waxing Gibbous
Sep 29
Full
Oct 8
Last Quarter
Oct 15
New
Oct 21
First Quarter

Hourly Weather History & Observations

Time (EDT) Temp. Dew Point Humidity Pressure Visibility Wind Dir Wind Speed Gust Speed Precip Events Conditions
12:51 AM 57.9 °F 53.1 °F 84% 30.11 in 10.0 mi SSE 4.6 mph - N/A   Clear
1:51 AM 57.0 °F 52.0 °F 83% 30.12 in 10.0 mi SSW 5.8 mph - N/A   Clear
2:51 AM 54.0 °F 52.0 °F 93% 30.15 in 10.0 mi Calm Calm - N/A   Clear
3:51 AM 57.9 °F 52.0 °F 81% 30.14 in 10.0 mi SW 6.9 mph - N/A   Clear
4:51 AM 59.0 °F 53.1 °F 81% 30.14 in 10.0 mi SSW 6.9 mph - N/A   Clear
5:51 AM 57.9 °F 53.1 °F 84% 30.15 in 10.0 mi WSW 3.5 mph - N/A   Mostly Cloudy
6:51 AM 55.0 °F 53.1 °F 93% 30.18 in 10.0 mi South 3.5 mph - N/A   Partly Cloudy
7:51 AM 55.9 °F 53.1 °F 90% 30.19 in 10.0 mi Calm Calm - N/A   Clear
8:51 AM 62.1 °F 55.0 °F 78% 30.19 in 10.0 mi SSW 6.9 mph - N/A   Clear
9:51 AM 64.0 °F 55.0 °F 73% 30.19 in 10.0 mi WSW 8.1 mph - N/A   Clear
10:51 AM 66.9 °F 55.9 °F 68% 30.20 in 10.0 mi WSW 5.8 mph - N/A   Mostly Cloudy
11:51 AM 68.0 °F 55.9 °F 65% 30.20 in 10.0 mi WSW 6.9 mph - N/A   Mostly Cloudy
12:51 PM 72.0 °F 55.9 °F 57% 30.16 in 10.0 mi WSW 9.2 mph - N/A   Partly Cloudy
1:51 PM 73.0 °F 55.9 °F 55% 30.15 in 10.0 mi WSW 12.7 mph - N/A   Partly Cloudy
2:51 PM 75.0 °F 57.9 °F 55% 30.13 in 10.0 mi WSW 9.2 mph - N/A   Partly Cloudy
3:51 PM 75.9 °F 59.0 °F 56% 30.12 in 10.0 mi West 8.1 mph - N/A   Partly Cloudy
4:51 PM 75.0 °F 57.9 °F 55% 30.12 in 10.0 mi West 9.2 mph - N/A   Clear
5:51 PM 73.9 °F 57.9 °F 57% 30.13 in 10.0 mi SW 6.9 mph - N/A   Clear
6:51 PM 71.1 °F 57.9 °F 63% 30.15 in 10.0 mi Calm Calm - N/A   Clear
7:51 PM 66.2 °F 59.0 °F 78% 30.21 in 10.0 mi South 5.8 mph - N/A   Clear
8:51 PM 64.9 °F 57.9 °F 78% 30.16 in 10.0 mi South 4.6 mph - N/A   Clear
9:51 PM 64.0 °F 57.0 °F 78% 30.16 in 10.0 mi SSE 4.6 mph - N/A   Clear
10:51 PM 64.0 °F 55.0 °F 73% 30.15 in 10.0 mi SSE 3.5 mph - N/A   Clear
11:51 PM 59.0 °F 55.9 °F 90% 30.17 in 10.0 mi Calm Calm - N/A   Clear